Year,Month,Day,Hour,Minute,Value (Times are PST for temperature in C)
2012,09,15,00,00,12.10
2012,09,15,00,01,12.10
2012,09,15,00,02,12.10
2012,09,15,00,03,12.10
2012,09,15,00,04,12.10
2012,09,15,00,05,12.10
2012,09,15,00,06,12.10
2012,09,15,00,07,12.10
2012,09,15,00,08,12.10
2012,09,15,00,09,12.10
2012,09,15,00,10,12.10
2012,09,15,00,11,12.10
2012,09,15,00,12,12.10
2012,09,15,00,13,12.10
2012,09,15,00,14,12.10
2012,09,15,00,15,12.10
2012,09,15,00,16,12.00
2012,09,15,00,17,12.00
2012,09,15,00,18,12.00
2012,09,15,00,19,12.00
2012,09,15,00,20,12.00
2012,09,15,00,21,12.00
2012,09,15,00,22,11.90
2012,09,15,00,23,11.90
2012,09,15,00,24,11.90
2012,09,15,00,25,11.90
2012,09,15,00,26,11.90
2012,09,15,00,27,11.90
2012,09,15,00,28,11.80
2012,09,15,00,29,11.80
2012,09,15,00,30,11.80
2012,09,15,00,31,11.80
2012,09,15,00,32,11.80
2012,09,15,00,33,11.80
2012,09,15,00,34,11.80
2012,09,15,00,35,11.70
2012,09,15,00,36,11.70
2012,09,15,00,37,11.70
2012,09,15,00,38,11.70
2012,09,15,00,39,11.70
2012,09,15,00,40,11.60
2012,09,15,00,41,11.60
2012,09,15,00,42,11.60
2012,09,15,00,43,11.60
2012,09,15,00,44,11.60
2012,09,15,00,45,11.60
2012,09,15,00,46,11.50
2012,09,15,00,47,11.50
2012,09,15,00,48,11.50
2012,09,15,00,49,11.40
2012,09,15,00,50,11.40
2012,09,15,00,51,11.40
2012,09,15,00,52,11.40
2012,09,15,00,53,11.40
2012,09,15,00,54,11.30
2012,09,15,00,55,11.30
2012,09,15,00,56,11.30
2012,09,15,00,57,11.30
2012,09,15,00,58,11.30
2012,09,15,00,59,11.30
2012,09,15,01,00,11.20
2012,09,15,01,01,11.20
2012,09,15,01,02,11.20
2012,09,15,01,03,11.20
2012,09,15,01,04,11.20
2012,09,15,01,05,11.20
2012,09,15,01,06,11.20
2012,09,15,01,07,11.10
2012,09,15,01,08,11.10
2012,09,15,01,09,11.10
2012,09,15,01,10,11.10
2012,09,15,01,11,11.10
2012,09,15,01,12,11.10
2012,09,15,01,13,11.10
2012,09,15,01,14,11.00
2012,09,15,01,15,11.00
2012,09,15,01,16,11.00
2012,09,15,01,17,11.00
2012,09,15,01,18,10.90
2012,09,15,01,19,10.90
2012,09,15,01,20,10.90
2012,09,15,01,21,10.90
2012,09,15,01,22,10.90
2012,09,15,01,23,10.90
2012,09,15,01,24,10.80
2012,09,15,01,25,10.80
2012,09,15,01,26,10.80
2012,09,15,01,27,10.80
2012,09,15,01,28,10.80
2012,09,15,01,29,10.80
2012,09,15,01,30,10.80
2012,09,15,01,31,10.80
2012,09,15,01,32,10.80
2012,09,15,01,33,10.80
2012,09,15,01,34,10.80
2012,09,15,01,35,10.80
2012,09,15,01,36,10.70
2012,09,15,01,37,10.70
2012,09,15,01,38,10.70
2012,09,15,01,39,10.70
2012,09,15,01,40,10.70
2012,09,15,01,41,10.70
2012,09,15,01,42,10.70
2012,09,15,01,43,10.60
2012,09,15,01,44,10.60
2012,09,15,01,45,10.60
2012,09,15,01,46,10.60
2012,09,15,01,47,10.60
2012,09,15,01,48,10.60
2012,09,15,01,49,10.50
2012,09,15,01,50,10.50
2012,09,15,01,51,10.50
2012,09,15,01,52,10.40
2012,09,15,01,53,10.40
2012,09,15,01,54,10.40
2012,09,15,01,55,10.40
2012,09,15,01,56,10.40
2012,09,15,01,57,10.40
2012,09,15,01,58,10.30
2012,09,15,01,59,10.30
2012,09,15,02,00,10.30
2012,09,15,02,01,10.30
2012,09,15,02,02,10.30
2012,09,15,02,03,10.30
2012,09,15,02,04,10.30
2012,09,15,02,05,10.30
2012,09,15,02,06,10.20
2012,09,15,02,07,10.20
2012,09,15,02,08,10.20
2012,09,15,02,09,10.20
2012,09,15,02,10,10.20
2012,09,15,02,11,10.20
2012,09,15,02,12,10.20
2012,09,15,02,13,10.20
2012,09,15,02,14,10.20
2012,09,15,02,15,10.10
2012,09,15,02,16,10.10
2012,09,15,02,17,10.10
2012,09,15,02,18,10.10
2012,09,15,02,19,10.10
2012,09,15,02,20,10.10
2012,09,15,02,21,10.10
2012,09,15,02,22,10.10
2012,09,15,02,23,10.10
2012,09,15,02,24,10.10
2012,09,15,02,25,10.00
2012,09,15,02,26,10.00
2012,09,15,02,27,10.00
2012,09,15,02,28,10.00
2012,09,15,02,29,10.00
2012,09,15,02,30,10.00
2012,09,15,02,31,10.00
2012,09,15,02,32,10.00
2012,09,15,02,33,10.00
2012,09,15,02,34,10.00
2012,09,15,02,35,10.00
2012,09,15,02,36,9.90
2012,09,15,02,37,9.90
2012,09,15,02,38,9.90
2012,09,15,02,39,9.90
2012,09,15,02,40,9.90
2012,09,15,02,41,9.90
2012,09,15,02,42,9.90
2012,09,15,02,43,9.90
2012,09,15,02,44,9.90
2012,09,15,02,45,9.80
2012,09,15,02,46,9.80
2012,09,15,02,47,9.80
2012,09,15,02,48,9.80
2012,09,15,02,49,9.80
2012,09,15,02,50,9.80
2012,09,15,02,51,9.80
2012,09,15,02,52,9.80
2012,09,15,02,53,9.70
2012,09,15,02,54,9.70
2012,09,15,02,55,9.70
2012,09,15,02,56,9.70
2012,09,15,02,57,9.70
2012,09,15,02,58,9.70
2012,09,15,02,59,9.70
2012,09,15,03,00,9.60
2012,09,15,03,01,9.60
2012,09,15,03,02,9.60
2012,09,15,03,03,9.60
2012,09,15,03,04,9.60
2012,09,15,03,05,9.60
2012,09,15,03,06,9.60
2012,09,15,03,07,9.60
2012,09,15,03,08,9.60
2012,09,15,03,09,9.60
2012,09,15,03,10,9.60
2012,09,15,03,11,9.60
2012,09,15,03,12,9.60
2012,09,15,03,13,9.60
2012,09,15,03,14,9.60
2012,09,15,03,15,9.60
2012,09,15,03,16,9.50
2012,09,15,03,17,9.50
2012,09,15,03,18,9.50
2012,09,15,03,19,9.50
2012,09,15,03,20,9.50
2012,09,15,03,21,9.40
2012,09,15,03,22,9.40
2012,09,15,03,23,9.40
2012,09,15,03,24,9.40
2012,09,15,03,25,9.40
2012,09,15,03,26,9.40
2012,09,15,03,27,9.40
2012,09,15,03,28,9.40
2012,09,15,03,29,9.30
2012,09,15,03,30,9.30
2012,09,15,03,31,9.30
2012,09,15,03,32,9.30
2012,09,15,03,33,9.30
2012,09,15,03,34,9.30
2012,09,15,03,35,9.30
2012,09,15,03,36,9.30
2012,09,15,03,37,9.30
2012,09,15,03,38,9.30
2012,09,15,03,39,9.20
2012,09,15,03,40,9.20
2012,09,15,03,41,9.20
2012,09,15,03,42,9.20
2012,09,15,03,43,9.20
2012,09,15,03,44,9.20
2012,09,15,03,45,9.20
2012,09,15,03,46,9.20
2012,09,15,03,47,9.20
2012,09,15,03,48,9.20
2012,09,15,03,49,9.20
2012,09,15,03,50,9.20
2012,09,15,03,51,9.20
2012,09,15,03,52,9.10
2012,09,15,03,53,9.10
2012,09,15,03,54,9.10
2012,09,15,03,55,9.10
2012,09,15,03,56,9.10
2012,09,15,03,57,9.10
2012,09,15,03,58,9.10
2012,09,15,03,59,9.10
2012,09,15,04,00,9.10
2012,09,15,04,01,9.10
2012,09,15,04,02,9.00
2012,09,15,04,03,9.00
2012,09,15,04,04,9.00
2012,09,15,04,05,9.00
2012,09,15,04,06,8.90
2012,09,15,04,07,8.90
2012,09,15,04,08,8.90
2012,09,15,04,09,8.90
2012,09,15,04,10,8.90
2012,09,15,04,11,8.90
2012,09,15,04,12,8.90
2012,09,15,04,13,8.90
2012,09,15,04,14,8.80
2012,09,15,04,15,8.80
2012,09,15,04,16,8.80
2012,09,15,04,17,8.80
2012,09,15,04,18,8.80
2012,09,15,04,19,8.80
2012,09,15,04,20,8.80
2012,09,15,04,21,8.80
2012,09,15,04,22,8.80
2012,09,15,04,23,8.80
2012,09,15,04,24,8.70
2012,09,15,04,25,8.70
2012,09,15,04,26,8.70
2012,09,15,04,27,8.70
2012,09,15,04,28,8.70
2012,09,15,04,29,8.70
2012,09,15,04,30,8.70
2012,09,15,04,31,8.70
2012,09,15,04,32,8.70
2012,09,15,04,33,8.70
2012,09,15,04,34,8.70
2012,09,15,04,35,8.70
2012,09,15,04,36,8.70
2012,09,15,04,37,8.60
2012,09,15,04,38,8.60
2012,09,15,04,39,8.60
2012,09,15,04,40,8.60
2012,09,15,04,41,8.60
2012,09,15,04,42,8.60
2012,09,15,04,43,8.60
2012,09,15,04,44,8.60
2012,09,15,04,45,8.60
2012,09,15,04,46,8.60
2012,09,15,04,47,8.60
2012,09,15,04,48,8.60
2012,09,15,04,49,8.60
2012,09,15,04,50,8.60
2012,09,15,04,51,8.60
2012,09,15,04,52,8.60
2012,09,15,04,53,8.60
2012,09,15,04,54,8.60
2012,09,15,04,55,8.60
2012,09,15,04,56,8.60
2012,09,15,04,57,8.50
2012,09,15,04,58,8.50
2012,09,15,04,59,8.50
2012,09,15,05,00,8.50
2012,09,15,05,01,8.50
2012,09,15,05,02,8.50
2012,09,15,05,03,8.50
2012,09,15,05,04,8.40
2012,09,15,05,05,8.40
2012,09,15,05,06,8.40
2012,09,15,05,07,8.40
2012,09,15,05,08,8.40
2012,09,15,05,09,8.40
2012,09,15,05,10,8.40
2012,09,15,05,11,8.40
2012,09,15,05,12,8.40
2012,09,15,05,13,8.40
2012,09,15,05,14,8.40
2012,09,15,05,15,8.40
2012,09,15,05,16,8.40
2012,09,15,05,17,8.40
2012,09,15,05,18,8.40
2012,09,15,05,19,8.30
2012,09,15,05,20,8.30
2012,09,15,05,21,8.30
2012,09,15,05,22,8.30
2012,09,15,05,23,8.30
2012,09,15,05,24,8.30
2012,09,15,05,25,8.30
2012,09,15,05,26,8.30
2012,09,15,05,27,8.30
2012,09,15,05,28,8.30
2012,09,15,05,29,8.30
2012,09,15,05,30,8.30
2012,09,15,05,31,8.30
2012,09,15,05,32,8.30
2012,09,15,05,33,8.30
2012,09,15,05,34,8.30
2012,09,15,05,35,8.30
2012,09,15,05,36,8.30
2012,09,15,05,37,8.30
2012,09,15,05,38,8.30
2012,09,15,05,39,8.30
2012,09,15,05,40,8.30
2012,09,15,05,41,8.30
2012,09,15,05,42,8.30
2012,09,15,05,43,8.30
2012,09,15,05,44,8.30
2012,09,15,05,45,8.30
2012,09,15,05,46,8.20
2012,09,15,05,47,8.20
2012,09,15,05,48,8.20
2012,09,15,05,49,8.20
2012,09,15,05,50,8.20
2012,09,15,05,51,8.20
2012,09,15,05,52,8.20
2012,09,15,05,53,8.20
2012,09,15,05,54,8.20
2012,09,15,05,55,8.20
2012,09,15,05,56,8.20
2012,09,15,05,57,8.10
2012,09,15,05,58,8.10
2012,09,15,05,59,8.10
2012,09,15,06,00,8.10
2012,09,15,06,01,8.10
2012,09,15,06,02,8.10
2012,09,15,06,03,8.10
2012,09,15,06,04,8.10
2012,09,15,06,05,8.10
2012,09,15,06,06,8.10
2012,09,15,06,07,8.10
2012,09,15,06,08,8.10
2012,09,15,06,09,8.10
2012,09,15,06,10,8.10
2012,09,15,06,11,8.10
2012,09,15,06,12,8.10
2012,09,15,06,13,8.10
2012,09,15,06,14,8.10
2012,09,15,06,15,8.00
2012,09,15,06,16,8.00
2012,09,15,06,17,8.00
2012,09,15,06,18,8.00
2012,09,15,06,19,8.00
2012,09,15,06,20,8.00
2012,09,15,06,21,8.00
2012,09,15,06,22,8.00
2012,09,15,06,23,8.00
2012,09,15,06,24,7.90
2012,09,15,06,25,7.90
2012,09,15,06,26,7.90
2012,09,15,06,27,7.90
2012,09,15,06,28,7.90
2012,09,15,06,29,7.90
2012,09,15,06,30,7.90
2012,09,15,06,31,7.90
2012,09,15,06,32,7.90
2012,09,15,06,33,7.90
2012,09,15,06,34,7.80
2012,09,15,06,35,7.80
2012,09,15,06,36,7.80
2012,09,15,06,37,7.80
2012,09,15,06,38,7.80
2012,09,15,06,39,7.80
2012,09,15,06,40,7.80
2012,09,15,06,41,7.80
2012,09,15,06,42,7.80
2012,09,15,06,43,7.80
2012,09,15,06,44,7.80
2012,09,15,06,45,7.80
2012,09,15,06,46,7.80
2012,09,15,06,47,7.80
2012,09,15,06,48,7.80
2012,09,15,06,49,7.80
2012,09,15,06,50,7.70
2012,09,15,06,51,7.70
2012,09,15,06,52,7.70
2012,09,15,06,53,7.70
2012,09,15,06,54,7.70
2012,09,15,06,55,7.70
2012,09,15,06,56,7.70
2012,09,15,06,57,7.70
2012,09,15,06,58,7.70
2012,09,15,06,59,7.70
2012,09,15,07,00,7.70
2012,09,15,07,01,7.70
2012,09,15,07,02,7.70
2012,09,15,07,03,7.70
2012,09,15,07,04,7.70
2012,09,15,07,05,7.70
2012,09,15,07,06,7.70
2012,09,15,07,07,7.70
2012,09,15,07,08,7.70
2012,09,15,07,09,7.70
2012,09,15,07,10,7.70
2012,09,15,07,11,7.70
2012,09,15,07,12,7.70
2012,09,15,07,13,7.70
2012,09,15,07,14,7.70
2012,09,15,07,15,7.70
2012,09,15,07,16,7.70
2012,09,15,07,17,7.70
2012,09,15,07,18,7.70
2012,09,15,07,19,7.70
2012,09,15,07,20,7.70
2012,09,15,07,21,7.70
2012,09,15,07,22,7.70
2012,09,15,07,23,7.70
2012,09,15,07,24,7.60
2012,09,15,07,25,7.60
2012,09,15,07,26,7.60
2012,09,15,07,27,7.60
2012,09,15,07,28,7.60
2012,09,15,07,29,7.60
2012,09,15,07,30,7.60
2012,09,15,07,31,7.60
2012,09,15,07,32,7.70
2012,09,15,07,33,7.70
2012,09,15,07,34,7.70
2012,09,15,07,35,7.70
2012,09,15,07,36,7.70
2012,09,15,07,37,7.70
2012,09,15,07,38,7.70
2012,09,15,07,39,7.70
2012,09,15,07,40,7.70
2012,09,15,07,41,7.70
2012,09,15,07,42,7.70
2012,09,15,07,43,7.70
2012,09,15,07,44,7.70
2012,09,15,07,45,7.70
2012,09,15,07,46,7.70
2012,09,15,07,47,7.70
2012,09,15,07,48,7.80
2012,09,15,07,49,7.80
2012,09,15,07,50,7.80
2012,09,15,07,51,7.80
2012,09,15,07,52,7.80
2012,09,15,07,53,7.80
2012,09,15,07,54,7.80
2012,09,15,07,55,7.90
2012,09,15,07,56,7.90
2012,09,15,07,57,7.90
2012,09,15,07,58,7.90
2012,09,15,07,59,7.90
2012,09,15,08,00,7.90
2012,09,15,08,01,7.90
2012,09,15,08,02,8.00
2012,09,15,08,03,8.00
2012,09,15,08,04,8.00
2012,09,15,08,05,8.00
2012,09,15,08,06,8.00
2012,09,15,08,07,8.10
2012,09,15,08,08,8.10
2012,09,15,08,09,8.10
2012,09,15,08,10,8.20
2012,09,15,08,11,8.20
2012,09,15,08,12,8.20
2012,09,15,08,13,8.30
2012,09,15,08,14,8.30
2012,09,15,08,15,8.30
2012,09,15,08,16,8.30
2012,09,15,08,17,8.40
2012,09,15,08,18,8.40
2012,09,15,08,19,8.40
2012,09,15,08,20,8.40
2012,09,15,08,21,8.50
2012,09,15,08,22,8.50
2012,09,15,08,23,8.50
2012,09,15,08,24,8.50
2012,09,15,08,25,8.60
2012,09,15,08,26,8.60
2012,09,15,08,27,8.60
2012,09,15,08,28,8.70
2012,09,15,08,29,8.70
2012,09,15,08,30,8.70
2012,09,15,08,31,8.80
2012,09,15,08,32,8.80
2012,09,15,08,33,8.80
2012,09,15,08,34,8.90
2012,09,15,08,35,8.90
2012,09,15,08,36,9.00
2012,09,15,08,37,9.00
2012,09,15,08,38,9.10
2012,09,15,08,39,9.10
2012,09,15,08,40,9.20
2012,09,15,08,41,9.20
2012,09,15,08,42,9.30
2012,09,15,08,43,9.30
2012,09,15,08,44,9.40
2012,09,15,08,45,9.40
2012,09,15,08,46,9.50
2012,09,15,08,47,9.50
2012,09,15,08,48,9.50
2012,09,15,08,49,9.60
2012,09,15,08,50,9.60
2012,09,15,08,51,9.60
2012,09,15,08,52,9.70
2012,09,15,08,53,9.70
2012,09,15,08,54,9.70
2012,09,15,08,55,9.80
2012,09,15,08,56,9.80
2012,09,15,08,57,9.90
2012,09,15,08,58,9.90
2012,09,15,08,59,10.00
2012,09,15,09,00,10.10
2012,09,15,09,01,10.10
2012,09,15,09,02,10.20
2012,09,15,09,03,10.30
2012,09,15,09,04,10.30
2012,09,15,09,05,10.40
2012,09,15,09,06,10.40
2012,09,15,09,07,10.50
2012,09,15,09,08,10.50
2012,09,15,09,09,10.60
2012,09,15,09,10,10.70
2012,09,15,09,11,10.70
2012,09,15,09,12,10.80
2012,09,15,09,13,10.90
2012,09,15,09,14,11.00
2012,09,15,09,15,11.20
2012,09,15,09,16,11.30
2012,09,15,09,17,11.50
2012,09,15,09,18,11.60
2012,09,15,09,19,11.70
2012,09,15,09,20,11.80
2012,09,15,09,21,11.90
2012,09,15,09,22,12.10
2012,09,15,09,23,12.20
2012,09,15,09,24,12.20
2012,09,15,09,25,12.30
2012,09,15,09,26,12.40
2012,09,15,09,27,12.50
2012,09,15,09,28,12.60
2012,09,15,09,29,12.70
2012,09,15,09,30,12.70
2012,09,15,09,31,12.80
2012,09,15,09,32,12.80
2012,09,15,09,33,12.90
2012,09,15,09,34,13.00
2012,09,15,09,35,13.00
2012,09,15,09,36,13.10
2012,09,15,09,37,13.20
2012,09,15,09,38,13.20
2012,09,15,09,39,13.30
2012,09,15,09,40,13.40
2012,09,15,09,41,13.50
2012,09,15,09,42,13.70
2012,09,15,09,43,13.80
2012,09,15,09,44,14.00
2012,09,15,09,45,14.10
2012,09,15,09,46,14.30
2012,09,15,09,47,14.40
2012,09,15,09,48,14.60
2012,09,15,09,49,14.70
2012,09,15,09,50,14.90
2012,09,15,09,51,15.00
2012,09,15,09,52,15.00
2012,09,15,09,53,15.10
2012,09,15,09,54,15.30
2012,09,15,09,55,15.40
2012,09,15,09,56,15.60
2012,09,15,09,57,15.70
2012,09,15,09,58,15.80
2012,09,15,09,59,15.90
2012,09,15,10,00,16.00
2012,09,15,10,01,16.10
2012,09,15,10,02,16.20
2012,09,15,10,03,16.30
2012,09,15,10,04,16.30
2012,09,15,10,05,16.40
2012,09,15,10,06,16.40
2012,09,15,10,07,16.50
2012,09,15,10,08,16.60
2012,09,15,10,09,16.60
2012,09,15,10,10,16.70
2012,09,15,10,11,16.70
2012,09,15,10,12,16.70
2012,09,15,10,13,16.80
2012,09,15,10,14,16.80
2012,09,15,10,15,16.90
2012,09,15,10,16,16.90
2012,09,15,10,17,16.90
2012,09,15,10,18,17.00
2012,09,15,10,19,17.00
2012,09,15,10,20,17.10
2012,09,15,10,21,17.10
2012,09,15,10,22,17.10
2012,09,15,10,23,17.10
2012,09,15,10,24,17.10
2012,09,15,10,25,17.20
2012,09,15,10,26,17.20
2012,09,15,10,27,17.20
2012,09,15,10,28,17.30
2012,09,15,10,29,17.30
2012,09,15,10,30,17.40
2012,09,15,10,31,17.40
2012,09,15,10,32,17.50
2012,09,15,10,33,17.60
2012,09,15,10,34,17.60
2012,09,15,10,35,17.60
2012,09,15,10,36,17.70
2012,09,15,10,37,17.70
2012,09,15,10,38,17.80
2012,09,15,10,39,17.80
2012,09,15,10,40,17.90
2012,09,15,10,41,17.90
2012,09,15,10,42,17.90
2012,09,15,10,43,17.90
2012,09,15,10,44,18.00
2012,09,15,10,45,18.10
2012,09,15,10,46,18.10
2012,09,15,10,47,18.20
2012,09,15,10,48,18.20
2012,09,15,10,49,18.20
2012,09,15,10,50,18.20
2012,09,15,10,51,18.20
2012,09,15,10,52,18.20
2012,09,15,10,53,18.10
2012,09,15,10,54,18.20
2012,09,15,10,55,18.20
2012,09,15,10,56,18.10
2012,09,15,10,57,18.20
2012,09,15,10,58,18.20
2012,09,15,10,59,18.20
2012,09,15,11,00,18.20
2012,09,15,11,01,18.20
2012,09,15,11,02,18.20
2012,09,15,11,03,18.20
2012,09,15,11,04,18.30
2012,09,15,11,05,18.30
2012,09,15,11,06,18.40
2012,09,15,11,07,18.40
2012,09,15,11,08,18.40
2012,09,15,11,09,18.40
2012,09,15,11,10,18.40
2012,09,15,11,11,18.50
2012,09,15,11,12,18.60
2012,09,15,11,13,18.60
2012,09,15,11,14,18.70
2012,09,15,11,15,18.80
2012,09,15,11,16,18.80
2012,09,15,11,17,18.80
2012,09,15,11,18,18.80
2012,09,15,11,19,18.80
2012,09,15,11,20,18.80
2012,09,15,11,21,18.80
2012,09,15,11,22,18.90
2012,09,15,11,23,19.00
2012,09,15,11,24,19.10
2012,09,15,11,25,19.20
2012,09,15,11,26,19.20
2012,09,15,11,27,19.30
2012,09,15,11,28,19.30
2012,09,15,11,29,19.30
2012,09,15,11,30,19.30
2012,09,15,11,31,19.40
2012,09,15,11,32,19.40
2012,09,15,11,33,19.50
2012,09,15,11,34,19.50
2012,09,15,11,35,19.60
2012,09,15,11,36,19.60
2012,09,15,11,37,19.70
2012,09,15,11,38,19.80
2012,09,15,11,39,19.90
2012,09,15,11,40,19.90
2012,09,15,11,41,20.00
2012,09,15,11,42,20.10
2012,09,15,11,43,20.10
2012,09,15,11,44,20.10
2012,09,15,11,45,20.00
2012,09,15,11,46,20.00
2012,09,15,11,47,20.00
2012,09,15,11,48,20.00
2012,09,15,11,49,20.00
2012,09,15,11,50,20.00
2012,09,15,11,51,20.10
2012,09,15,11,52,20.20
2012,09,15,11,53,20.30
2012,09,15,11,54,20.30
2012,09,15,11,55,20.40
2012,09,15,11,56,20.40
2012,09,15,11,57,20.40
2012,09,15,11,58,20.40
2012,09,15,11,59,20.40
2012,09,15,12,00,20.50
2012,09,15,12,01,20.50
2012,09,15,12,02,20.60
2012,09,15,12,03,20.60
2012,09,15,12,04,20.70
2012,09,15,12,05,20.80
2012,09,15,12,06,20.80
2012,09,15,12,07,20.90
2012,09,15,12,08,20.90
2012,09,15,12,09,20.90
2012,09,15,12,10,20.90
2012,09,15,12,11,20.90
2012,09,15,12,12,20.90
2012,09,15,12,13,20.90
2012,09,15,12,14,20.80
2012,09,15,12,15,20.80
2012,09,15,12,16,20.90
2012,09,15,12,17,20.90
2012,09,15,12,18,20.90
2012,09,15,12,19,21.00
2012,09,15,12,20,21.00
2012,09,15,12,21,21.00
2012,09,15,12,22,21.10
2012,09,15,12,23,21.10
2012,09,15,12,24,21.20
2012,09,15,12,25,21.20
2012,09,15,12,26,21.20
2012,09,15,12,27,21.20
2012,09,15,12,28,21.30
2012,09,15,12,29,21.30
2012,09,15,12,30,21.30
2012,09,15,12,31,21.30
2012,09,15,12,32,21.40
2012,09,15,12,33,21.40
2012,09,15,12,34,21.40
2012,09,15,12,35,21.50
2012,09,15,12,36,21.50
2012,09,15,12,37,21.60
2012,09,15,12,38,21.60
2012,09,15,12,39,21.60
2012,09,15,12,40,21.70
2012,09,15,12,41,21.70
2012,09,15,12,42,21.70
2012,09,15,12,43,21.70
2012,09,15,12,44,21.70
2012,09,15,12,45,21.80
2012,09,15,12,46,21.80
2012,09,15,12,47,21.80
2012,09,15,12,48,21.90
2012,09,15,12,49,21.90
2012,09,15,12,50,21.90
2012,09,15,12,51,21.90
2012,09,15,12,52,21.90
2012,09,15,12,53,21.90
2012,09,15,12,54,21.90
2012,09,15,12,55,22.00
2012,09,15,12,56,22.00
2012,09,15,12,57,22.10
2012,09,15,12,58,22.10
2012,09,15,12,59,22.10
2012,09,15,13,00,22.10
2012,09,15,13,01,22.10
2012,09,15,13,02,22.10
2012,09,15,13,03,22.10
2012,09,15,13,04,22.20
2012,09,15,13,05,22.20
2012,09,15,13,06,22.20
2012,09,15,13,07,22.20
2012,09,15,13,08,22.30
2012,09,15,13,09,22.40
2012,09,15,13,10,22.40
2012,09,15,13,11,22.40
2012,09,15,13,12,22.40
2012,09,15,13,13,22.40
2012,09,15,13,14,22.40
2012,09,15,13,15,22.40
2012,09,15,13,16,22.40
2012,09,15,13,17,22.50
2012,09,15,13,18,22.50
2012,09,15,13,19,22.50
2012,09,15,13,20,22.60
2012,09,15,13,21,22.60
2012,09,15,13,22,22.70
2012,09,15,13,23,22.70
2012,09,15,13,24,22.80
2012,09,15,13,25,22.80
2012,09,15,13,26,22.80
2012,09,15,13,27,22.80
2012,09,15,13,28,22.70
2012,09,15,13,29,22.70
2012,09,15,13,30,22.70
2012,09,15,13,31,22.70
2012,09,15,13,32,22.70
2012,09,15,13,33,22.70
2012,09,15,13,34,22.60
2012,09,15,13,35,22.60
2012,09,15,13,36,22.60
2012,09,15,13,37,22.60
2012,09,15,13,38,22.70
2012,09,15,13,39,22.70
2012,09,15,13,40,22.80
2012,09,15,13,41,22.90
2012,09,15,13,42,23.00
2012,09,15,13,43,23.00
2012,09,15,13,44,23.10
2012,09,15,13,45,23.20
2012,09,15,13,46,23.20
2012,09,15,13,47,23.30
2012,09,15,13,48,23.30
2012,09,15,13,49,23.40
2012,09,15,13,50,23.40
2012,09,15,13,51,23.40
2012,09,15,13,52,23.30
2012,09,15,13,53,23.30
2012,09,15,13,54,23.30
2012,09,15,13,55,23.30
2012,09,15,13,56,23.30
2012,09,15,13,57,23.20
2012,09,15,13,58,23.20
2012,09,15,13,59,23.20
2012,09,15,14,00,23.30
2012,09,15,14,01,23.30
2012,09,15,14,02,23.30
2012,09,15,14,03,23.30
2012,09,15,14,04,23.20
2012,09,15,14,05,23.20
2012,09,15,14,06,23.20
2012,09,15,14,07,23.20
2012,09,15,14,08,23.20
2012,09,15,14,09,23.30
2012,09,15,14,10,23.30
2012,09,15,14,11,23.30
2012,09,15,14,12,23.30
2012,09,15,14,13,23.40
2012,09,15,14,14,23.40
2012,09,15,14,15,23.50
2012,09,15,14,16,23.50
2012,09,15,14,17,23.60
2012,09,15,14,18,23.60
2012,09,15,14,19,23.60
2012,09,15,14,20,23.70
2012,09,15,14,21,23.70
2012,09,15,14,22,23.70
2012,09,15,14,23,23.70
2012,09,15,14,24,23.70
2012,09,15,14,25,23.60
2012,09,15,14,26,23.60
2012,09,15,14,27,23.60
2012,09,15,14,28,23.60
2012,09,15,14,29,23.60
2012,09,15,14,30,23.60
2012,09,15,14,31,23.60
2012,09,15,14,32,23.60
2012,09,15,14,33,23.60
2012,09,15,14,34,23.60
2012,09,15,14,35,23.60
2012,09,15,14,36,23.60
2012,09,15,14,37,23.60
2012,09,15,14,38,23.60
2012,09,15,14,39,23.70
2012,09,15,14,40,23.70
2012,09,15,14,41,23.70
2012,09,15,14,42,23.70
2012,09,15,14,43,23.70
2012,09,15,14,44,23.80
2012,09,15,14,45,23.80
2012,09,15,14,46,23.80
2012,09,15,14,47,23.80
2012,09,15,14,48,23.70
2012,09,15,14,49,23.60
2012,09,15,14,50,23.60
2012,09,15,14,51,23.60
2012,09,15,14,52,23.50
2012,09,15,14,53,23.50
2012,09,15,14,54,23.50
2012,09,15,14,55,23.50
2012,09,15,14,56,23.50
2012,09,15,14,57,23.50
2012,09,15,14,58,23.50
2012,09,15,14,59,23.50
2012,09,15,15,00,23.50
2012,09,15,15,01,23.50
2012,09,15,15,02,23.50
2012,09,15,15,03,23.50
2012,09,15,15,04,23.60
2012,09,15,15,05,23.60
2012,09,15,15,06,23.60
2012,09,15,15,07,23.60
2012,09,15,15,08,23.60
2012,09,15,15,09,23.70
2012,09,15,15,10,23.70
2012,09,15,15,11,23.60
2012,09,15,15,12,23.60
2012,09,15,15,13,23.70
2012,09,15,15,14,23.70
2012,09,15,15,15,23.70
2012,09,15,15,16,23.80
2012,09,15,15,17,23.80
2012,09,15,15,18,23.80
2012,09,15,15,19,23.80
2012,09,15,15,20,23.80
2012,09,15,15,21,23.80
2012,09,15,15,22,23.80
2012,09,15,15,23,23.90
2012,09,15,15,24,23.90
2012,09,15,15,25,24.00
2012,09,15,15,26,24.00
2012,09,15,15,27,24.10
2012,09,15,15,28,24.00
2012,09,15,15,29,23.90
2012,09,15,15,30,23.90
2012,09,15,15,31,23.90
2012,09,15,15,32,23.80
2012,09,15,15,33,23.80
2012,09,15,15,34,23.80
2012,09,15,15,35,23.90
2012,09,15,15,36,23.90
2012,09,15,15,37,23.90
2012,09,15,15,38,23.90
2012,09,15,15,39,23.80
2012,09,15,15,40,23.80
2012,09,15,15,41,23.90
2012,09,15,15,42,23.90
2012,09,15,15,43,23.90
2012,09,15,15,44,23.90
2012,09,15,15,45,23.90
2012,09,15,15,46,23.90
2012,09,15,15,47,23.80
2012,09,15,15,48,23.80
2012,09,15,15,49,23.80
2012,09,15,15,50,23.70
2012,09,15,15,51,23.80
2012,09,15,15,52,23.80
2012,09,15,15,53,23.80
2012,09,15,15,54,23.70
2012,09,15,15,55,23.70
2012,09,15,15,56,23.60
2012,09,15,15,57,23.60
2012,09,15,15,58,23.60
2012,09,15,15,59,23.50
2012,09,15,16,00,23.50
2012,09,15,16,01,23.60
2012,09,15,16,02,23.60
2012,09,15,16,03,23.60
2012,09,15,16,04,23.60
2012,09,15,16,05,23.60
2012,09,15,16,06,23.60
2012,09,15,16,07,23.50
2012,09,15,16,08,23.50
2012,09,15,16,09,23.50
2012,09,15,16,10,23.50
2012,09,15,16,11,23.50
2012,09,15,16,12,23.50
2012,09,15,16,13,23.60
2012,09,15,16,14,23.50
2012,09,15,16,15,23.40
2012,09,15,16,16,23.40
2012,09,15,16,17,23.40
2012,09,15,16,18,23.40
2012,09,15,16,19,23.40
2012,09,15,16,20,23.40
2012,09,15,16,21,23.40
2012,09,15,16,22,23.40
2012,09,15,16,23,23.40
2012,09,15,16,24,23.40
2012,09,15,16,25,23.40
2012,09,15,16,26,23.40
2012,09,15,16,27,23.40
2012,09,15,16,28,23.40
2012,09,15,16,29,23.50
2012,09,15,16,30,23.50
2012,09,15,16,31,23.50
2012,09,15,16,32,23.50
2012,09,15,16,33,23.50
2012,09,15,16,34,23.50
2012,09,15,16,35,23.40
2012,09,15,16,36,23.40
2012,09,15,16,37,23.40
2012,09,15,16,38,23.30
2012,09,15,16,39,23.30
2012,09,15,16,40,23.30
2012,09,15,16,41,23.20
2012,09,15,16,42,23.20
2012,09,15,16,43,23.10
2012,09,15,16,44,23.10
2012,09,15,16,45,23.10
2012,09,15,16,46,23.10
2012,09,15,16,47,23.10
2012,09,15,16,48,23.10
2012,09,15,16,49,23.20
2012,09,15,16,50,23.20
2012,09,15,16,51,23.20
2012,09,15,16,52,23.30
2012,09,15,16,53,23.30
2012,09,15,16,54,23.30
2012,09,15,16,55,23.20
2012,09,15,16,56,23.30
2012,09,15,16,57,23.30
2012,09,15,16,58,23.30
2012,09,15,16,59,23.30
2012,09,15,17,00,23.20
2012,09,15,17,01,23.20
2012,09,15,17,02,23.10
2012,09,15,17,03,23.10
2012,09,15,17,04,23.10
2012,09,15,17,05,23.00
2012,09,15,17,06,23.00
2012,09,15,17,07,22.90
2012,09,15,17,08,22.90
2012,09,15,17,09,22.90
2012,09,15,17,10,22.80
2012,09,15,17,11,22.80
2012,09,15,17,12,22.80
2012,09,15,17,13,22.80
2012,09,15,17,14,22.80
2012,09,15,17,15,22.80
2012,09,15,17,16,22.80
2012,09,15,17,17,22.70
2012,09,15,17,18,22.70
2012,09,15,17,19,22.70
2012,09,15,17,20,22.70
2012,09,15,17,21,22.60
2012,09,15,17,22,22.60
2012,09,15,17,23,22.60
2012,09,15,17,24,22.60
2012,09,15,17,25,22.60
2012,09,15,17,26,22.50
2012,09,15,17,27,22.50
2012,09,15,17,28,22.50
2012,09,15,17,29,22.50
2012,09,15,17,30,22.40
2012,09,15,17,31,22.40
2012,09,15,17,32,22.40
2012,09,15,17,33,22.40
2012,09,15,17,34,22.40
2012,09,15,17,35,22.40
2012,09,15,17,36,22.40